Hourly Data Report for September 18, 2017

All times are specified in Local Standard Time (LST). Add 1 hour to adjust for Daylight Saving Time where and when it is observed.

RESOLUTE BAY A
NUNAVUT

74°43'01.000" N
94°58'10.000" W
67.70 m
2403498
71924
YRB

Download Data

Hourly Data (September 2017)
Hourly Data Report for September 18, 2017
Temp Definition
°C
Dew Point Temp Definition
°C
Rel Hum Definition
%
Wind Dir Definition
10's deg

Wind Spd Definition
km/h
Visibility Definition
km
Stn Press Definition
kPa
Hmdx Definition


Wind Chill Definition


Weather Definition


TIME
00:00 Legend Double Dagger -7.8 -9.6 87 5 39 24.1 100.15   -18 Mainly Clear
01:00 Legend Double Dagger -8.6 -10.5 86 4 41 24.1 100.21   -19 Blowing Snow
02:00 Legend Double Dagger -8.7 -10.6 86 4 44 24.1 100.28   -19 Blowing Snow
03:00 Legend Double Dagger -8.5 -10.5 85 4 46 24.1 100.36   -19 Blowing Snow
04:00 Legend Double Dagger -9.0 -11.1 85 5 41 24.1 100.43   -20 Blowing Snow
05:00 Legend Double Dagger -9.1 -11.5 83 4 37 24.1 100.48   -19 Blowing Snow
06:00 Legend Double Dagger -8.9 -11.2 84 4 40 24.1 100.51   -19 Blowing Snow
07:00 Legend Double Dagger -9.7 -12.2 82 4 44 24.1 100.58   -21 Blowing Snow
08:00 Legend Double Dagger -9.4 -12.3 80 4 39 24.1 100.67   -20 LegendNANA
09:00 Legend Double Dagger -10.0 -12.6 82 3 36 24.1 100.76   -20 Blowing Snow
10:00 Legend Double Dagger -9.2 -12.1 80 3 35 24.1 100.81   -19 Blowing Snow
11:00 Legend Double Dagger -9.4 -12.1 81 4 34 24.1 100.88   -19 LegendNANA
12:00 Legend Double Dagger -7.6 -10.4 80 2 36 24.1 100.93   -17 Mainly Clear
13:00 Legend Double Dagger -6.4 -8.3 86 1 36 24.1 101.00   -16 LegendNANA
14:00 Legend Double Dagger -6.9 -9.0 85 34 25 24.1 101.09   -15 LegendNANA
15:00 Legend Double Dagger -7.2 -9.1 86 36 37 24.1 101.14   -17 Clear
16:00 Legend Double Dagger -7.4 -9.3 87 35 30 24.1 101.20   -16 LegendNANA
17:00 Legend Double Dagger -6.8 -8.9 85 36 35 24.1 101.23   -16 LegendNANA
18:00 Legend Double Dagger -7.6 -9.2 88 35 25 14.5 101.31   -16 Mostly Cloudy
19:00 Legend Double Dagger -7.7 -9.4 88 36 35 24.1 101.30   -17 LegendNANA
20:00 Legend Double Dagger -8.5 -10.4 86 36 43 24.1 101.32   -19 LegendNANA
21:00 Legend Double Dagger -8.9 -11.4 82 35 16 24.1 101.38   -16 Mainly Clear
22:00 Legend Double Dagger -9.2 -11.4 84 35 28 24.1 101.41   -18 LegendNANA
23:00 Legend Double Dagger -9.8 -11.8 86 21 5 24.1 101.50   -13 LegendNANA

Notes on Data Quality.

Legend

  • E = Estimated
  • M = Missing
  • NA = Not Available
  • ‡ = Partner data that is not subject to review by the National Climate Archives
Date modified: